EW2281 Weather Reports


Display with metric or nautical units.
time (UTC)temp
F
wind
direction
speed
MPH
gust
MPH
rain 1hr
in
rain 24hr
in
rain mn
in
humidity
%
barometer
mb
20260904170927 82 196 1.0 5.0 0.00 0.05 0.00 71 970.8
20260904170426 82 355 1.0 5.0 0.00 0.05 0.00 74 970.8
20260904170402 81 5 2.0 7.0 0.00 0.05 0.00 72 970.8
20260904170021 82 46 2.0 7.0 0.00 0.05 0.00 73 970.8
20260904165158 82 355 2.0 9.0 0.00 0.05 0.00 74 970.8
20260904164422 81 296 2.0 9.0 0.00 0.05 0.00 73 970.8
20260904163921 81 292 2.0 7.0 0.00 0.05 0.00 75 970.8
20260904163644 81 333 1.0 6.0 0.00 0.05 0.00 74 970.8
20260904162921 81 311 1.0 6.0 0.00 0.05 0.00 74 970.8
20260904162419 81 311 1.0 6.0 0.00 0.05 0.00 75 970.8
20260904162139 80 61 1.0 6.0 0.00 0.05 0.00 78 970.7
20260904161632 80 11 1.0 6.0 0.00 0.05 0.00 76 970.9
20260904160912 80 13 1.0 4.0 0.00 0.05 0.00 78 970.9
20260904160408 79 301 1.0 4.0 0.00 0.05 0.00 79 970.9
20260904155910 79 80 1.0 5.0 0.00 0.05 0.00 79 970.8
20260904155622 79 291 1.0 2.0 0.00 0.05 0.00 79 970.8
20260904155506 79 289 1.0 5.0 0.00 0.05 0.00 78 970.8
20260904154410 79 300 1.0 7.0 0.00 0.05 0.00 80 970.8
20260904153910 78 22 1.0 7.0 0.00 0.05 0.00 79 970.8
20260904153408 78 18 1.0 4.0 0.00 0.05 0.00 80 971.1
20260904152907 78 22 1.0 6.0 0.00 0.05 0.00 81 971.1
20260904152408 77 38 1.0 6.0 0.00 0.05 0.00 82 971.0
20260904151904 78 19 1.0 5.0 0.00 0.05 0.00 80 971.1
20260904151628 78 340 1.0 5.0 0.00 0.05 0.00 79 971.0
20260904150903 78 288 1.0 7.0 0.00 0.05 0.00 80 971.0
20260904150403 77 329 2.0 7.0 0.00 0.05 0.00 80 970.9
20260904145902 77 19 1.0 7.0 0.00 0.05 0.00 80 970.9
20260904145403 76 312 1.0 5.0 0.00 0.05 0.00 82 970.9
20260904144902 76 13 1.0 4.0 0.00 0.05 0.00 82 970.8
20260904144404 76 302 1.0 4.0 0.00 0.05 0.00 82 970.9
20260904144119 76 304 1.0 3.0 0.00 0.05 0.00 83 970.8
20260904143631 76 44 1.0 3.0 0.00 0.05 0.00 82 971.0
20260904142902 76 33 1.0 5.0 0.00 0.05 0.00 82 970.8
20260904142628 76 292 1.0 5.0 0.00 0.05 0.00 82 970.9
20260904141902 76 55 0.0 4.0 0.00 0.05 0.00 83 971.0
20260904141405 75 240 0.0 4.0 0.00 0.05 0.00 85 971.1
20260904140906 75 61 0.0 4.0 0.00 0.05 0.00 85 971.1
20260904140405 75 292 0.0 4.0 0.00 0.05 0.00 86 971.1
20260904135906 75 15 0.0 2.0 0.00 0.05 0.00 87 971.0
20260904135401 74 321 0.0 0.0 0.00 0.05 0.00 87 971.0
20260904134843 74 321 0.0 2.0 0.00 0.05 0.00 87 971.0
20260904134343 74 330 1.0 6.0 0.00 0.05 0.00 88 970.9
20260904134103 73 27 1.0 6.0 0.00 0.05 0.00 87 970.9
20260904133613 73 25 1.0 6.0 0.00 0.05 0.00 87 971.0
20260904132842 73 40 0.0 4.0 0.00 0.05 0.00 87 970.9
20260904132347 73 31 0.0 0.0 0.00 0.05 0.00 89 971.0
20260904131841 73 28 0.0 0.0 0.00 0.05 0.00 91 971.1
20260904131342 73 28 0.0 0.0 0.00 0.05 0.00 90 971.1
20260904130841 73 302 0.0 0.0 0.00 0.05 0.00 91 971.2
20260904130340 73 302 0.0 0.0 0.00 0.05 0.00 90 971.2
20260904130058 73 302 0.0 0.0 0.00 0.05 0.00 91 971.3
20260904125332 72 229 0.0 0.0 0.00 0.05 0.00 91 971.3
20260904124833 72 176 0.0 0.0 0.00 0.05 0.00 91 971.2
20260904124551 72 176 0.0 0.0 0.00 0.05 0.00 91 971.3
20260904123819 72 230 0.0 0.0 0.00 0.05 0.00 92 971.3
20260904123313 71 230 0.0 0.0 0.00 0.05 0.00 92 971.3
20260904122806 71 230 0.0 0.0 0.00 0.05 0.00 93 971.3
20260904122301 71 206 0.0 0.0 0.00 0.05 0.00 94 971.4
20260904122027 71 205 0.0 0.0 0.00 0.05 0.00 94 971.3
20260904121245 71 205 0.0 0.0 0.00 0.05 0.00 94 971.3
20260904120739 71 205 0.0 0.0 0.00 0.05 0.00 94 971.3
20260904120233 71 212 0.0 0.0 0.00 0.05 0.00 94 971.2
20260904115728 71 213 0.0 0.0 0.00 0.05 0.00 94 971.2
20260904115220 71 179 0.0 0.0 0.00 0.05 0.00 94 971.3
20260904114715 70 179 0.0 0.0 0.00 0.05 0.00 94 971.4
20260904114209 70 179 0.0 0.0 0.00 0.05 0.00 93 971.4
20260904113703 70 76 0.0 0.0 0.00 0.05 0.00 93 971.3
20260904113203 71 76 0.0 2.0 0.00 0.05 0.00 92 971.2
20260904112700 71 40 0.0 4.0 0.00 0.05 0.00 92 971.1
20260904112159 71 29 1.0 4.0 0.00 0.05 0.00 92 971.2
20260904111700 71 48 1.0 4.0 0.00 0.05 0.00 93 971.3
20260904111159 71 33 1.0 4.0 0.00 0.05 0.00 93 971.2
20260904110656 71 336 2.0 7.0 0.00 0.05 0.00 93 971.2
20260904110154 71 12 2.0 7.0 0.00 0.05 0.00 93 971.3
20260904105655 71 331 1.0 5.0 0.00 0.05 0.00 93 971.1
20260904105156 71 109 2.0 10.0 0.00 0.05 0.00 93 971.0
20260904105145 70 332 2.0 10.0 0.00 0.05 0.00 93 971.1
20260904104155 70 38 1.0 8.0 0.00 0.05 0.00 94 971.1
20260904103654 70 355 0.0 2.0 0.00 0.05 0.00 94 971.1
20260904103154 70 76 0.0 0.0 0.00 0.05 0.00 95 971.0
20260904102652 70 76 0.0 1.0 0.00 0.05 0.00 95 971.0
20260904102150 70 76 0.0 3.0 0.00 0.05 0.00 95 970.9
20260904101649 70 51 0.0 3.0 0.00 0.05 0.00 95 971.1
20260904101623 69 153 0.0 2.0 0.00 0.05 0.00 96 971.0
20260904100644 69 54 0.0 0.0 0.00 0.05 0.00 96 970.9
20260904100144 69 54 0.0 5.0 0.00 0.05 0.00 96 970.7
20260904095904 69 54 0.0 5.0 0.00 0.05 0.00 96 970.7
20260904095137 69 344 0.0 1.0 0.00 0.05 0.00 97 970.7
20260904094851 69 292 0.0 3.0 0.00 0.05 0.00 97 970.7
20260904094125 69 343 0.0 1.0 0.00 0.05 0.00 97 970.7
20260904093619 69 340 1.0 9.0 0.00 0.05 0.00 97 970.7
20260904093113 69 346 1.0 9.0 0.00 0.05 0.00 98 970.8
20260904092607 68 24 0.0 4.0 0.00 0.05 0.00 99 970.7
20260904092101 68 136 0.0 0.0 0.00 0.05 0.00 99 970.7
20260904091555 67 150 0.0 0.0 0.00 0.05 0.00 99 970.8
20260904091049 67 150 0.0 0.0 0.00 0.05 0.00 99 970.8
20260904090811 67 151 0.0 0.0 0.00 0.05 0.00 99 970.8
20260904090036 67 150 0.0 0.0 0.00 0.05 0.00 99 970.7
20260904085532 67 151 0.0 0.0 0.00 0.05 0.00 99 970.7
20260904085025 67 151 0.0 0.0 0.00 0.05 0.00 99 970.6
20260904084943 68 151 0.0 0.0 0.00 0.05 0.00 99 970.6
20260904084608 67 151 0.0 0.0 0.00 0.05 0.00 99 970.6
20260904083508 68 151 0.0 1.0 0.00 0.05 0.00 99 970.6
20260904083001 67 33 0.0 1.0 0.00 0.05 0.00 99 970.5
20260904082711 67 339 0.0 1.0 0.00 0.05 0.00 99 970.5
20260904082207 67 9 0.0 0.0 0.00 0.05 0.00 100 970.4
20260904081442 67 10 0.0 0.0 0.00 0.05 0.00 100 970.3
20260904080936 67 9 0.0 0.0 0.00 0.05 0.00 100 970.2
20260904080431 67 9 0.0 0.0 0.00 0.05 0.00 100 970.2
20260904075927 67 9 0.0 0.0 0.00 0.05 0.00 100 970.1
20260904075428 67 9 0.0 0.0 0.00 0.05 0.00 100 970.2
20260904074928 67 9 0.0 0.0 0.00 0.05 0.00 100 970.1
20260904074428 67 9 0.0 0.0 0.00 0.05 0.00 100 970.1
20260904073927 67 10 0.0 0.0 0.00 0.05 0.00 100 970.1
20260904073643 67 9 0.0 0.0 0.00 0.05 0.00 99 969.9
20260904072922 67 9 0.0 0.0 0.00 0.05 0.00 99 969.9
20260904072651 67 9 0.0 0.0 0.00 0.05 0.00 99 969.8
20260904071922 67 9 0.0 0.0 0.00 0.05 0.00 99 969.7
20260904071421 67 9 0.0 0.0 0.00 0.05 0.00 99 969.8
20260904070919 68 9 0.0 0.0 0.00 0.05 0.00 99 969.9
20260904070418 68 10 0.0 0.0 0.00 0.05 0.00 99 969.8
20260904065915 68 9 0.0 0.0 0.00 0.05 0.00 99 969.7
20260904065415 68 10 0.0 0.0 0.00 0.05 0.00 99 969.7
20260904064914 68 9 0.0 0.0 0.00 0.05 0.00 99 969.6
20260904064633 68 9 0.0 0.0 0.00 0.05 0.00 99 969.6
20260904063912 68 10 0.0 0.0 0.00 0.05 0.00 99 969.5
20260904063413 69 9 0.0 0.0 0.00 0.05 0.00 99 969.6
20260904062910 69 9 0.0 0.0 0.00 0.05 0.00 99 969.7
20260904062410 69 9 0.0 0.0 0.00 0.05 0.00 99 969.7
20260904061905 69 10 0.0 0.0 0.00 0.05 0.00 99 969.6
20260904061400 69 9 0.0 0.0 0.00 0.05 0.00 99 969.5
20260904060900 69 9 0.0 0.0 0.00 0.05 0.00 99 969.5
20260904060358 69 10 0.0 0.0 0.00 0.05 0.00 99 969.3
20260904055859 69 9 0.0 0.0 0.00 0.05 0.00 99 969.3
20260904055357 69 9 0.0 0.0 0.00 0.05 0.00 99 969.3
20260904054859 69 9 0.0 0.0 0.00 0.05 0.00 99 969.4
20260904054356 69 9 0.0 0.0 0.00 0.05 0.00 99 969.6
20260904054116 69 9 0.0 0.0 0.00 0.05 0.00 99 969.6
20260904053625 69 9 0.0 0.0 0.00 0.05 0.00 99 969.7
20260904052852 69 10 0.0 0.0 0.00 0.05 0.00 99 969.8
20260904052350 69 10 0.0 0.0 0.00 0.05 0.00 99 969.9
20260904051850 69 10 0.0 0.0 0.00 0.05 0.00 99 969.9
20260904051350 69 10 0.0 0.0 0.00 0.05 0.00 99 969.9
20260904050850 69 10 0.0 1.0 0.00 0.05 0.00 99 969.9
20260904050351 69 10 0.0 1.0 0.00 0.05 0.00 98 969.9
20260904045851 69 9 0.0 0.0 0.00 0.05 0.00 98 969.9
20260904045606 69 10 0.0 0.0 0.00 0.05 0.00 98 969.9
20260904044849 69 10 0.0 0.0 0.00 0.05 0.00 98 969.8
20260904044347 69 10 0.0 0.0 0.00 0.05 0.00 98 969.7
20260904044105 69 10 0.0 0.0 0.00 0.05 0.00 98 969.8
20260904043345 69 10 0.0 0.0 0.00 0.05 0.00 98 969.7
20260904042843 69 348 0.0 1.0 0.00 0.05 0.00 98 969.5
20260904042611 69 348 0.0 1.0 0.00 0.05 0.00 98 969.4
20260904041841 70 342 0.0 1.0 0.00 0.05 0.00 97 969.3
20260904041343 70 280 0.0 0.0 0.01 0.05 0.00 97 969.3
20260904040842 70 280 0.0 0.0 0.01 0.05 0.00 97 969.3
20260904040343 70 275 0.0 0.0 0.01 0.05 0.00 97 969.3
20260904035841 70 275 0.0 1.0 0.02 0.05 2.85 97 969.3
20260904035820 70 273 0.0 1.0 0.02 0.05 2.85 97 969.1
20260904034837 70 182 0.0 0.0 0.02 0.05 2.85 97 969.1
20260904034341 70 172 0.0 0.0 0.03 0.05 2.85 97 969.0
20260904033836 70 153 0.0 0.0 0.03 0.05 2.85 97 969.0
20260904033336 70 258 0.0 0.0 0.03 0.05 2.85 97 969.3
20260904033102 71 258 0.0 1.0 0.03 0.05 2.85 96 969.4
20260904032335 71 258 0.0 2.0 0.03 0.05 2.85 96 969.5
20260904031833 71 303 0.0 4.0 0.03 0.05 2.85 96 969.7
20260904031333 71 162 0.0 4.0 0.02 0.04 2.84 96 969.7
20260904030833 71 270 0.0 3.0 0.02 0.04 2.84 96 969.9
20260904030331 71 202 0.0 1.0 0.02 0.04 2.84 95 970.1
20260904025833 72 184 0.0 1.0 0.01 0.03 2.83 95 970.3
20260904025326 72 227 0.0 2.0 0.01 0.03 2.83 94 970.6
20260904024823 73 213 0.0 2.0 0.00 0.02 2.82 93 970.8
20260904024325 73 274 0.0 0.0 0.00 0.02 2.82 93 971.1
20260904023822 73 211 0.0 0.0 0.00 0.02 2.82 92 971.2
20260904023321 74 209 0.0 3.0 0.00 0.02 2.82 92 971.2
20260904022820 74 288 0.0 3.0 0.00 0.02 2.82 91 971.3
20260904022318 74 314 0.0 4.0 0.00 0.02 2.82 91 971.4
20260904021817 75 219 0.0 4.0 0.00 0.02 2.82 91 971.5
20260904021319 75 296 0.0 3.0 0.00 0.02 2.82 92 971.7
20260904021037 75 212 0.0 6.0 0.00 0.02 2.82 92 971.8
20260904020318 76 212 1.0 6.0 0.00 0.02 2.82 92 971.6
20260904015815 76 265 1.0 6.0 0.00 0.02 2.82 93 971.4
20260904015536 76 46 1.0 6.0 0.00 0.02 2.82 94 971.3
20260904014817 75 26 1.0 6.0 0.00 0.02 2.82 96 971.0
20260904014315 75 196 0.0 1.0 0.00 0.02 2.82 98 970.9
20260904014046 75 295 0.0 2.0 0.00 0.02 2.82 98 970.9
20260904013537 75 295 0.0 2.0 0.00 0.02 2.82 98 970.6
20260904012817 75 300 0.0 2.0 0.00 0.02 2.82 98 970.6
20260904012317 75 298 0.0 1.0 0.00 0.02 2.82 98 970.5
20260904011817 75 312 0.0 0.0 0.00 0.02 2.82 98 970.4
20260904011316 75 312 0.0 0.0 0.00 0.02 2.82 98 970.5
20260904010817 75 312 0.0 0.0 0.00 0.02 2.82 98 970.4
20260904010316 75 309 0.0 0.0 0.00 0.02 2.82 98 970.3
20260904005817 76 309 0.0 0.0 0.00 0.02 2.82 97 970.2
20260904005540 76 112 0.0 0.0 0.00 0.02 2.82 97 970.0
20260904004815 76 131 0.0 0.0 0.00 0.02 2.82 97 970.0
20260904004316 76 131 0.0 0.0 0.00 0.02 2.82 96 969.9
20260904003817 76 131 0.0 0.0 0.01 0.02 2.82 96 969.9
20260904003316 76 61 0.0 1.0 0.01 0.02 2.82 96 970.0
20260904002815 76 300 0.0 1.0 0.02 0.02 2.82 96 970.3
20260904002317 76 128 0.0 1.0 0.02 0.02 2.82 96 970.4
20260904001816 76 129 0.0 1.0 0.02 0.02 2.82 96 970.4
20260904001316 76 128 0.0 1.0 0.02 0.02 2.82 96 970.5
20260904000817 76 289 0.0 1.0 0.02 0.02 2.82 96 970.7
20260904000318 77 230 0.0 0.0 0.02 0.02 2.82 95 970.7
20260903235815 77 230 0.0 0.0 0.02 0.02 2.82 95 970.8
20260903235538 77 202 0.0 0.0 0.02 0.02 2.82 94 970.6
20260903234817 77 203 0.0 0.0 0.02 0.02 2.82 94 970.6
20260903234315 78 307 0.0 0.0 0.02 0.02 2.82 93 970.7
20260903233817 78 307 0.0 0.0 0.01 0.01 2.81 92 970.5
20260903233317 78 307 0.0 0.0 0.01 0.01 2.81 92 970.4
20260903232815 79 308 0.0 0.0 0.00 0.00 2.80 91 970.4
20260903232311 79 308 0.0 0.0 0.00 0.00 2.80 90 970.0
20260903231811 79 308 0.0 0.0 0.00 0.00 2.80 89 970.1
20260903231309 79 308 0.0 0.0 0.00 0.00 2.80 88 970.1
20260903230806 80 308 0.0 0.0 0.00 0.00 2.80 88 970.1
20260903230305 80 308 0.0 0.0 0.00 0.00 2.80 88 970.2
20260903225803 80 308 0.0 0.0 0.00 0.00 2.80 88 970.2
20260903225306 80 308 0.0 0.0 0.00 0.00 2.80 87 970.1
20260903225026 80 308 0.0 0.0 0.00 0.00 2.80 88 970.1
20260903224530 80 278 0.0 0.0 0.00 0.00 2.80 88 970.1
20260903223759 80 271 0.0 0.0 0.00 0.00 2.80 88 970.0
20260903223253 81 271 0.0 0.0 0.00 0.00 2.80 87 969.9
20260903222747 81 271 0.0 0.0 0.00 0.00 2.80 88 970.1
20260903222240 81 271 0.0 0.0 0.00 0.00 2.80 87 970.0
20260903221735 81 271 0.0 0.0 0.00 0.00 2.80 87 970.1
20260903221228 82 271 0.0 0.0 0.00 0.00 2.80 86 969.9
20260903220723 82 296 0.0 0.0 0.00 0.00 2.80 86 970.0
20260903220217 82 296 0.0 0.0 0.00 0.00 2.80 85 969.8
20260903215932 83 296 0.0 0.0 0.00 0.00 2.80 85 969.5
20260903215205 83 296 0.0 0.0 0.00 0.00 2.80 84 969.5
20260903214659 83 296 0.0 0.0 0.00 0.00 2.80 83 969.1
20260903214416 83 296 0.0 3.0 0.00 0.00 2.80 83 968.9
20260903213647 83 296 0.0 3.0 0.00 0.00 2.80 83 969.1
20260903213140 84 309 0.0 3.0 0.00 0.00 2.80 83 969.2
20260903212634 84 318 0.0 3.0 0.00 0.00 2.80 82 969.2
20260903212129 84 299 0.0 1.0 0.00 0.00 2.80 81 969.2
20260903211623 85 290 0.0 1.0 0.00 0.00 2.80 81 969.1
20260903211117 85 285 0.0 2.0 0.00 0.00 2.80 80 969.1
20260903210835 85 285 1.0 4.0 0.00 0.00 2.80 80 969.3
20260903210105 85 291 2.0 7.0 0.00 0.00 2.80 78 969.3
20260903205559 85 295 1.0 5.0 0.00 0.00 2.80 77 969.2
20260903205053 85 210 0.0 5.0 0.00 0.00 2.80 77 969.3
20260903204547 85 9 0.0 2.0 0.00 0.00 2.80 78 969.2
20260903204041 85 270 0.0 4.0 0.00 0.00 2.80 77 968.9
20260903203800 85 277 1.0 7.0 0.00 0.00 2.80 77 968.9
20260903203259 86 295 1.0 7.0 0.00 0.00 2.80 76 968.9
20260903202523 86 300 1.0 2.0 0.00 0.00 2.80 76 968.9
20260903202017 86 288 1.0 3.0 0.00 0.00 2.80 77 969.1
20260903201510 86 252 1.0 5.0 0.00 0.00 2.80 74 969.2
20260903201005 87 290 1.0 5.0 0.00 0.00 2.80 74 969.3
20260903200458 87 221 0.0 2.0 0.00 0.00 2.80 74 969.3
20260903195953 86 296 1.0 5.0 0.00 0.00 2.80 74 969.3
20260903195710 86 233 1.0 5.0 0.00 0.00 2.80 74 969.4
20260903195206 86 260 1.0 5.0 0.00 0.00 2.80 74 969.4
20260903194435 86 307 2.0 7.0 0.00 0.00 2.80 73 969.4
20260903194145 87 288 1.0 7.0 0.00 0.00 2.80 71 969.5
20260903193423 87 318 0.0 3.0 0.00 0.00 2.80 72 969.5
20260903193136 87 298 0.0 3.0 0.00 0.00 2.80 73 969.6
20260903192411 87 268 0.0 1.0 0.00 0.00 2.80 73 969.7
20260903192125 87 201 0.0 3.0 0.00 0.00 2.80 74 969.7
20260903191622 87 182 0.0 3.0 0.00 0.00 2.80 73 969.8
20260903191115 86 298 0.0 4.0 0.00 0.00 2.80 74 969.8
20260903190346 85 211 0.0 4.0 0.00 0.00 2.80 75 970.0
20260903185841 85 302 0.0 0.0 0.00 0.00 2.80 75 970.1
20260903185335 85 217 0.0 3.0 0.00 0.00 2.80 74 970.1
20260903185048 85 217 1.0 3.0 0.00 0.00 2.80 75 970.1
20260903184322 86 302 1.0 4.0 0.00 0.00 2.80 73 970.2
20260903183817 86 255 1.0 4.0 0.00 0.00 2.80 73 970.3
20260903183311 86 247 1.0 4.0 0.00 0.00 2.80 72 970.3
20260903183023 86 181 0.0 4.0 0.00 0.00 2.80 75 970.3
20260903182259 85 170 0.0 4.0 0.00 0.00 2.80 75 970.4
20260903181753 85 162 1.0 3.0 0.00 0.00 2.80 75 970.4
20260903181247 85 255 1.0 4.0 0.00 0.00 2.80 75 970.5
20260903181003 85 278 1.0 4.0 0.00 0.00 2.80 74 970.6
20260903180235 85 309 1.0 4.0 0.00 0.00 2.80 74 970.7
20260903175729 85 207 0.0 4.0 0.00 0.00 2.80 75 970.8
20260903175224 85 306 0.0 4.0 0.00 0.00 2.80 77 970.7
20260903174716 84 197 1.0 4.0 0.00 0.00 2.80 76 970.8
20260903174210 84 295 1.0 6.0 0.00 0.00 2.80 73 971.0
20260903173705 84 325 1.0 6.0 0.00 0.00 2.80 76 971.0
20260903173158 84 216 1.0 4.0 0.00 0.00 2.80 78 971.0
20260903172653 84 318 0.0 3.0 0.00 0.00 2.80 78 971.1
20260903172147 84 335 0.0 3.0 0.00 0.00 2.80 78 971.1
20260903171912 84 211 0.0 2.0 0.00 0.00 2.80 77 971.1